GW4147 Weather Reports


Display with metric or nautical units.
time (UTC)temp
F
wind
direction
speed
MPH
gust
MPH
rain 1hr
in
rain 24hr
in
rain mn
in
humidity
%
barometer
mb
20260509185501 84 26 2.0 6.0 0.00 0.00 0.00 57 1011.0
20260509184957 84 65 5.0 7.0 0.00 0.00 0.00 58 1011.1
20260509184456 84 352 5.0 7.0 0.00 0.00 0.00 58 1011.1
20260509183952 83 312 3.0 5.0 0.00 0.00 0.00 55 1011.0
20260509183447 83 316 4.0 8.0 0.00 0.00 0.00 58 1011.0
20260509182943 84 38 3.0 6.0 0.00 0.00 0.00 56 1011.2
20260509182440 83 347 7.0 10.0 0.00 0.00 0.00 56 1011.2
20260509181938 82 0 5.0 8.0 0.00 0.00 0.00 61 1011.2
20260509181435 82 35 6.0 10.0 0.00 0.00 0.00 63 1011.3
20260509180933 82 75 4.0 11.0 0.00 0.00 0.00 62 1011.5
20260509180428 82 68 5.0 11.0 0.00 0.00 0.00 63 1011.5
20260509175925 82 33 6.0 9.0 0.00 0.00 0.00 63 1011.8
20260509175422 82 335 4.0 7.0 0.00 0.00 0.00 64 1011.7
20260509174917 81 339 5.0 8.0 0.00 0.00 0.00 65 1011.8
20260509174413 81 340 5.0 9.0 0.00 0.00 0.00 66 1011.9
20260509173909 81 355 6.0 6.0 0.00 0.00 0.00 68 1011.9
20260509173404 81 70 3.0 7.0 0.00 0.00 0.00 67 1012.0
20260509172901 81 28 5.0 10.0 0.00 0.00 0.00 65 1011.9
20260509172357 81 345 4.0 9.0 0.00 0.00 0.00 66 1011.9
20260509171853 80 40 3.0 9.0 0.00 0.00 0.00 67 1012.0
20260509171349 80 40 3.0 9.0 0.00 0.00 0.00 67 1012.0
20260509170845 79 2 6.0 10.0 0.00 0.00 0.00 69 1012.1
20260509170336 80 16 1.0 7.0 0.00 0.00 0.00 67 1012.0
20260509165836 80 337 4.0 6.0 0.00 0.00 0.00 69 1012.1
20260509165330 79 4 4.0 5.0 0.00 0.00 0.00 70 1012.1
20260509164826 79 332 5.0 7.0 0.00 0.00 0.00 69 1012.2
20260509164323 79 306 4.0 6.0 0.00 0.00 0.00 70 1012.4
20260509163819 78 359 6.0 10.0 0.00 0.00 0.00 71 1012.3
20260509163317 78 301 7.0 8.0 0.00 0.00 0.00 70 1012.1
20260509162816 78 320 2.0 8.0 0.00 0.00 0.00 71 1012.4
20260509162309 78 321 3.0 3.0 0.00 0.00 0.00 70 1012.2
20260509161805 78 357 4.0 7.0 0.00 0.00 0.00 71 1012.4
20260509161301 79 293 4.0 9.0 0.00 0.00 0.00 71 1012.2
20260509160757 78 345 3.0 6.0 0.00 0.00 0.00 73 1012.4
20260509160254 77 253 4.0 6.0 0.00 0.00 0.00 73 1012.3
20260509155748 77 348 4.0 7.0 0.00 0.00 0.00 72 1012.1
20260509155246 78 42 5.0 9.0 0.00 0.00 0.00 72 1012.1
20260509154741 77 222 5.0 6.0 0.00 0.00 0.00 72 1012.4
20260509154239 77 257 5.0 6.0 0.00 0.00 0.00 73 1012.3
20260509153736 76 313 8.0 9.0 0.00 0.00 0.00 74 1012.3
20260509153231 76 260 7.0 9.0 0.00 0.00 0.00 75 1012.2
20260509152728 76 290 5.0 8.0 0.00 0.00 0.00 74 1012.2
20260509152225 76 328 5.0 9.0 0.00 0.00 0.00 75 1012.2
20260509151722 76 0 4.0 9.0 0.00 0.00 0.00 76 1012.1
20260509151219 76 286 7.0 10.0 0.00 0.00 0.00 75 1012.0
20260509150716 76 282 6.0 10.0 0.00 0.00 0.00 76 1012.0
20260509150214 75 12 4.0 8.0 0.00 0.00 0.00 79 1012.2
20260509145711 75 330 7.0 10.0 0.00 0.00 0.00 77 1012.0
20260509145206 74 307 6.0 11.0 0.00 0.00 0.00 79 1012.1
20260509144703 74 314 3.0 8.0 0.00 0.00 0.00 79 1012.0
20260509144200 73 294 5.0 13.0 0.00 0.00 0.00 80 1012.0
20260509143657 73 334 4.0 6.0 0.00 0.00 0.00 82 1012.0
20260509143154 73 351 4.0 8.0 0.00 0.00 0.00 82 1011.9
20260509142649 72 274 1.0 6.0 0.00 0.00 0.00 85 1012.1
20260509142147 71 357 4.0 9.0 0.00 0.00 0.00 86 1012.1
20260509141642 70 330 6.0 10.0 0.00 0.00 0.00 88 1012.0
20260509141138 70 340 7.0 11.0 0.00 0.00 0.00 88 1012.1
20260509140636 70 328 7.0 11.0 0.00 0.00 0.00 88 1012.3
20260509140134 69 302 6.0 11.0 0.00 0.00 0.00 89 1012.1
20260509135631 69 283 5.0 9.0 0.00 0.00 0.00 89 1012.1
20260509135129 69 290 5.0 12.0 0.00 0.00 0.00 90 1012.1
20260509134625 69 294 7.0 9.0 0.00 0.00 0.00 89 1011.9
20260509134123 69 329 3.0 7.0 0.00 0.00 0.00 89 1012.1
20260509133620 69 359 1.0 6.0 0.00 0.00 0.00 90 1011.9
20260509133117 69 339 5.0 9.0 0.00 0.00 0.00 90 1012.1
20260509132615 69 313 4.0 8.0 0.00 0.00 0.00 91 1011.9
20260509132113 69 310 3.0 7.0 0.00 0.00 0.00 91 1012.1
20260509131609 68 334 3.0 6.0 0.00 0.00 0.00 92 1011.8
20260509131106 68 336 3.0 4.0 0.00 0.00 0.00 93 1011.9
20260509130602 68 279 3.0 5.0 0.00 0.00 0.00 94 1011.9
20260509130058 68 357 3.0 5.0 0.00 0.00 0.00 94 1012.0
20260509125555 67 328 2.0 4.0 0.00 0.00 0.00 95 1011.9
20260509125052 67 318 2.0 3.0 0.00 0.00 0.00 95 1012.1
20260509124548 67 347 2.0 2.0 0.00 0.00 0.00 95 1012.0
20260509124045 67 318 3.0 4.0 0.00 0.00 0.00 95 1011.9
20260509123543 67 328 4.0 5.0 0.00 0.00 0.00 96 1011.9
20260509123039 67 331 3.0 5.0 0.00 0.00 0.00 96 1011.7
20260509122536 66 268 2.0 2.0 0.00 0.00 0.00 96 1011.8
20260509122033 66 20 0.0 3.0 0.00 0.00 0.00 96 1011.7
20260509121529 66 223 2.0 3.0 0.00 0.00 0.00 96 1011.7
20260509121027 66 312 4.0 5.0 0.00 0.00 0.00 96 1011.6
20260509120525 66 0 1.0 2.0 0.00 0.00 0.00 96 1011.6
20260509120023 66 251 4.0 5.0 0.00 0.00 0.00 96 1011.7
20260509115520 66 253 1.0 3.0 0.00 0.00 0.00 96 1011.5
20260509115018 66 290 0.0 2.0 0.00 0.00 0.00 96 1011.2
20260509114515 65 348 1.0 2.0 0.00 0.00 0.00 96 1011.3
20260509114014 65 301 1.0 3.0 0.00 0.00 0.00 95 1011.2
20260509113512 65 334 1.0 4.0 0.00 0.00 0.00 95 1011.1
20260509113010 65 260 0.0 2.0 0.00 0.00 0.00 95 1011.3
20260509112506 65 241 2.0 3.0 0.00 0.00 0.00 95 1011.0
20260509112002 66 258 1.0 2.0 0.00 0.00 0.00 95 1010.7
20260509111500 66 66 1.0 1.0 0.00 0.00 0.00 95 1010.5
20260509110957 66 334 1.0 2.0 0.00 0.00 0.00 94 1010.4
20260509110453 66 18 0.0 3.0 0.00 0.00 0.00 94 1010.2
20260509105951 66 352 3.0 3.0 0.00 0.00 0.00 94 1010.3
20260509105449 66 5 2.0 3.0 0.00 0.00 0.00 94 1010.2
20260509104946 66 37 0.0 2.0 0.00 0.00 0.00 94 1010.4
20260509104443 66 333 0.0 2.0 0.00 0.00 0.00 94 1010.1
20260509103940 67 329 1.0 3.0 0.00 0.00 0.00 94 1010.2
20260509103438 67 1 1.0 3.0 0.00 0.00 0.00 94 1010.1
20260509102936 67 25 1.0 2.0 0.00 0.00 0.00 93 1010.0
20260509102433 67 342 1.0 2.0 0.00 0.00 0.00 93 1010.2
20260509101929 67 316 1.0 2.0 0.00 0.00 0.00 93 1010.1
20260509101425 67 116 1.0 3.0 0.00 0.00 0.00 93 1010.0
20260509100923 67 108 2.0 3.0 0.00 0.00 0.00 93 1009.7
20260509100420 67 96 2.0 5.0 0.00 0.00 0.00 92 1009.8
20260509095916 68 117 3.0 6.0 0.00 0.00 0.00 92 1009.4
20260509095414 68 92 3.0 6.0 0.00 0.00 0.00 92 1009.3
20260509094911 68 106 3.0 8.0 0.00 0.00 0.00 92 1009.1
20260509094407 68 64 4.0 6.0 0.00 0.00 0.00 91 1009.3
20260509093905 68 49 4.0 8.0 0.00 0.00 0.00 91 1009.4
20260509093402 68 67 3.0 5.0 0.00 0.00 0.00 91 1009.5
20260509092900 68 93 3.0 4.0 0.00 0.00 0.00 90 1009.2
20260509092357 68 56 5.0 9.0 0.00 0.00 0.00 90 1009.2
20260509091856 68 80 2.0 10.0 0.00 0.00 0.00 90 1009.2
20260509091352 68 88 6.0 8.0 0.00 0.00 0.00 90 1009.6
20260509090850 68 120 10.0 12.0 0.00 0.00 0.00 90 1009.5
20260509090347 68 71 5.0 9.0 0.00 0.00 0.00 90 1009.7
20260509085844 69 55 3.0 10.0 0.00 0.00 0.00 90 1009.5
20260509085341 69 63 5.0 8.0 0.00 0.00 0.00 90 1009.5
20260509084838 69 81 4.0 8.0 0.00 0.00 0.00 90 1009.4
20260509084335 69 100 5.0 6.0 0.00 0.00 0.00 90 1009.3
20260509083833 69 74 5.0 9.0 0.00 0.00 0.00 90 1009.2
20260509083329 69 58 4.0 7.0 0.00 0.00 0.00 89 1009.3
20260509082826 69 339 4.0 7.0 0.00 0.00 0.00 88 1009.3
20260509082322 70 358 6.0 15.0 0.00 0.00 0.00 87 1009.5
20260509081820 70 42 6.0 6.0 0.00 0.00 0.00 88 1008.5
20260509081317 70 160 5.0 8.0 0.00 0.00 0.00 88 1008.0
20260509080815 70 120 3.0 9.0 0.00 0.00 0.00 89 1008.2
20260509080312 69 192 2.0 11.0 0.00 0.00 0.00 89 1008.0
20260509075810 69 171 3.0 7.0 0.00 0.00 0.00 89 1008.3
20260509075307 69 190 3.0 6.0 0.00 0.00 0.00 89 1008.5
20260509074804 69 181 4.0 4.0 0.00 0.00 0.00 89 1008.9
20260509074302 69 213 3.0 7.0 0.00 0.00 0.00 89 1009.4
20260509073758 69 132 3.0 6.0 0.00 0.00 0.00 89 1009.5
20260509073254 69 169 3.0 5.0 0.00 0.00 0.00 89 1009.8
20260509072751 69 189 2.0 6.0 0.00 0.00 0.00 89 1010.1
20260509072248 69 177 2.0 7.0 0.00 0.00 0.00 89 1010.0
20260509071744 69 266 1.0 3.0 0.00 0.00 0.00 89 1010.3
20260509071242 69 89 0.0 5.0 0.00 0.00 0.00 89 1010.3
20260509070738 69 134 3.0 3.0 0.00 0.00 0.00 89 1010.9
20260509070235 69 120 1.0 3.0 0.00 0.00 0.00 89 1010.7
20260509065731 69 78 2.0 4.0 0.00 0.00 0.00 89 1010.8
20260509065228 69 104 0.0 3.0 0.00 0.00 0.00 89 1010.7
20260509064724 69 138 3.0 4.0 0.00 0.00 0.00 88 1010.6
20260509064222 69 238 1.0 5.0 0.00 0.00 0.00 88 1011.0
20260509063719 69 327 2.0 4.0 0.00 0.00 0.00 88 1011.1
20260509063215 69 197 4.0 9.0 0.00 0.00 0.00 87 1010.8
20260509062713 69 202 5.0 8.0 0.00 0.00 0.00 87 1011.2
20260509062210 69 230 7.0 12.0 0.00 0.00 0.00 87 1011.3
20260509061707 69 198 7.0 7.0 0.00 0.00 0.00 87 1011.2
20260509061204 69 213 6.0 13.0 0.00 0.00 0.00 88 1011.0
20260509060701 68 212 4.0 10.0 0.00 0.00 0.00 88 1010.8
20260509060158 68 208 2.0 7.0 0.00 0.00 0.00 89 1010.7
20260509055654 68 215 3.0 6.0 0.00 0.00 0.00 88 1010.7
20260509055149 68 257 2.0 3.0 0.00 0.00 0.00 87 1010.6
20260509054646 68 201 3.0 5.0 0.00 0.00 0.00 87 1010.7
20260509054144 68 244 0.0 4.0 0.00 0.00 0.00 87 1010.8
20260509053642 68 213 1.0 5.0 0.00 0.00 0.00 87 1010.8
20260509053138 68 217 5.0 6.0 0.00 0.00 0.00 87 1011.0
20260509052636 68 188 1.0 5.0 0.00 0.00 0.00 87 1010.8
20260509052134 68 175 4.0 5.0 0.00 0.00 0.00 86 1011.2
20260509051632 69 180 3.0 3.0 0.00 0.00 0.00 85 1011.8
20260509051128 69 153 2.0 4.0 0.00 0.00 0.00 84 1011.7
20260509050626 70 195 3.0 3.0 0.00 0.00 0.00 83 1012.0
20260509050122 70 225 3.0 4.0 0.00 0.00 0.00 83 1012.4
20260509045620 70 251 4.0 4.0 0.00 0.15 0.15 83 1012.3
20260509045116 70 248 5.0 5.0 0.00 0.15 0.15 82 1012.6
20260509044613 70 342 3.0 5.0 0.00 0.15 0.15 82 1012.9
20260509044111 71 354 4.0 7.0 0.00 0.15 0.15 81 1013.1
20260509043607 71 332 6.0 8.0 0.00 0.15 0.15 81 1013.0
20260509043103 71 329 3.0 6.0 0.00 0.15 0.15 81 1012.4
20260509042559 70 313 3.0 3.0 0.00 0.15 0.15 81 1011.8
20260509042055 71 273 1.0 4.0 0.00 0.15 0.15 81 1011.3
20260509041552 71 215 3.0 6.0 0.00 0.15 0.15 81 1011.2
20260509041050 71 184 3.0 5.0 0.00 0.15 0.15 81 1011.0
20260509040548 71 199 3.0 5.0 0.00 0.15 0.15 80 1011.0
20260509040044 71 204 4.0 4.0 0.00 0.15 0.15 80 1011.1
20260509035541 71 190 1.0 4.0 0.00 0.15 0.15 80 1011.1
20260509035038 71 141 0.0 3.0 0.00 0.15 0.15 79 1011.1
20260509034536 71 120 3.0 5.0 0.00 0.15 0.15 78 1011.1
20260509034033 71 80 8.0 8.0 0.00 0.15 0.15 79 1011.6
20260509033530 71 82 3.0 4.0 0.00 0.15 0.15 79 1010.8
20260509033027 71 187 2.0 6.0 0.00 0.15 0.15 79 1010.4
20260509032524 71 161 3.0 5.0 0.00 0.15 0.15 79 1010.5
20260509032021 71 26 0.0 4.0 0.00 0.15 0.15 79 1010.5
20260509031519 71 178 5.0 7.0 0.00 0.15 0.15 79 1010.1
20260509031016 71 191 4.0 10.0 0.00 0.15 0.15 79 1010.1
20260509030514 71 185 5.0 7.0 0.00 0.15 0.15 79 1010.7
20260509030010 71 125 2.0 4.0 0.00 0.15 0.15 78 1011.6
20260509025506 71 20 5.0 5.0 0.00 0.15 0.15 78 1012.1
20260509025002 71 24 3.0 5.0 0.00 0.15 0.15 78 1012.0
20260509024458 71 38 2.0 5.0 0.00 0.15 0.15 79 1011.9
20260509023955 71 44 4.0 5.0 0.00 0.15 0.15 79 1011.6
20260509023452 71 353 2.0 4.0 0.00 0.15 0.15 79 1011.2
20260509022949 71 40 2.0 3.0 0.00 0.15 0.15 79 1011.1
20260509022446 71 92 2.0 3.0 0.00 0.15 0.15 79 1010.8
20260509021943 71 124 0.0 4.0 0.00 0.15 0.15 79 1010.5
20260509021439 71 60 1.0 3.0 0.00 0.15 0.15 79 1010.3
20260509020938 71 124 2.0 3.0 0.00 0.15 0.15 78 1010.0
20260509020436 71 127 4.0 4.0 0.00 0.15 0.15 78 1010.0
20260509015932 71 26 0.0 5.0 0.00 0.15 0.15 78 1009.5
20260509015431 71 218 3.0 6.0 0.00 0.15 0.15 78 1009.4
20260509014927 71 137 2.0 6.0 0.00 0.15 0.15 77 1009.3
20260509014423 71 192 3.0 4.0 0.00 0.15 0.15 77 1009.5
20260509013920 71 205 3.0 7.0 0.00 0.15 0.15 76 1009.4
20260509013417 72 131 1.0 4.0 0.00 0.15 0.15 76 1009.5
20260509012912 72 201 3.0 5.0 0.00 0.15 0.15 75 1009.5
20260509012409 72 190 6.0 9.0 0.00 0.15 0.15 74 1009.3
20260509011907 72 193 5.0 6.0 0.00 0.15 0.15 74 1009.5
20260509011404 73 201 5.0 6.0 0.00 0.15 0.15 73 1009.5
20260509010902 73 203 2.0 5.0 0.00 0.15 0.15 73 1009.6
20260509010359 73 228 3.0 9.0 0.00 0.15 0.15 72 1009.5
20260509005856 73 226 0.0 3.0 0.00 0.15 0.15 72 1009.9
20260509005354 73 183 2.0 3.0 0.00 0.15 0.15 72 1009.8
20260509004849 73 61 2.0 4.0 0.00 0.15 0.15 71 1009.8
20260509004345 73 173 3.0 4.0 0.00 0.15 0.15 71 1009.7
20260509003843 74 174 4.0 4.0 0.00 0.15 0.15 71 1009.6
20260509003341 74 215 2.0 3.0 0.00 0.15 0.15 70 1009.5
20260509002838 74 197 7.0 10.0 0.00 0.15 0.15 70 1009.3
20260509002335 74 139 4.0 10.0 0.00 0.15 0.15 69 1009.3
20260509001833 75 174 3.0 8.0 0.00 0.15 0.15 68 1009.3
20260509001328 75 146 3.0 7.0 0.00 0.15 0.15 68 1009.2
20260509000826 75 182 3.0 8.0 0.00 0.15 0.15 68 1009.2
20260509000325 75 148 3.0 7.0 0.00 0.15 0.15 68 1009.2
20260508235820 75 125 3.0 8.0 0.00 0.15 0.15 68 1009.2
20260508235317 75 218 5.0 9.0 0.00 0.15 0.15 68 1009.1
20260508234814 76 187 5.0 11.0 0.00 0.15 0.15 67 1009.2
20260508234310 76 215 6.0 7.0 0.00 0.15 0.15 66 1009.4
20260508233809 76 142 5.0 9.0 0.00 0.15 0.15 65 1009.3
20260508233308 77 134 2.0 6.0 0.00 0.15 0.15 66 1009.4
20260508232804 76 211 3.0 11.0 0.00 0.15 0.15 65 1009.6
20260508232300 77 183 4.0 11.0 0.00 0.15 0.15 63 1009.6
20260508231759 76 233 2.0 7.0 0.00 0.15 0.15 65 1009.6
20260508231255 76 208 5.0 8.0 0.00 0.15 0.15 64 1009.6
20260508230752 77 201 9.0 11.0 0.00 0.15 0.15 64 1009.5
20260508230248 77 183 5.0 7.0 0.00 0.15 0.15 65 1009.6
20260508225746 77 196 5.0 8.0 0.00 0.15 0.15 64 1009.7
20260508225242 77 185 3.0 11.0 0.00 0.15 0.15 65 1009.6
20260508224740 78 219 4.0 5.0 0.00 0.15 0.15 64 1009.7
20260508224237 77 132 5.0 10.0 0.00 0.15 0.15 64 1009.5
20260508223735 77 206 6.0 6.0 0.00 0.15 0.15 65 1009.7
20260508223232 77 155 3.0 9.0 0.00 0.15 0.15 65 1009.6
20260508222729 77 204 6.0 9.0 0.00 0.15 0.15 64 1009.7
20260508222227 77 154 0.0 7.0 0.00 0.15 0.15 63 1009.8
20260508221723 78 160 2.0 8.0 0.00 0.15 0.15 63 1009.8
20260508221219 78 140 3.0 8.0 0.00 0.15 0.15 62 1009.8
20260508220715 78 181 4.0 6.0 0.00 0.15 0.15 62 1009.9
20260508220212 77 141 3.0 11.0 0.00 0.15 0.15 63 1009.6
20260508215708 78 182 6.0 11.0 0.00 0.15 0.15 62 1009.9
20260508215205 79 149 1.0 6.0 0.00 0.15 0.15 60 1009.8
20260508214702 78 182 1.0 8.0 0.00 0.15 0.15 63 1009.8
20260508214200 78 224 4.0 7.0 0.00 0.15 0.15 62 1009.9
20260508213656 78 120 4.0 9.0 0.00 0.15 0.15 61 1009.9
20260508213152 78 94 1.0 7.0 0.00 0.15 0.15 62 1009.8
20260508212649 78 66 3.0 9.0 0.00 0.15 0.15 63 1009.8
20260508212146 78 171 1.0 10.0 0.00 0.15 0.15 62 1009.9
20260508211640 79 11 1.0 5.0 0.00 0.15 0.15 62 1009.7
20260508211137 78 320 2.0 10.0 0.00 0.15 0.15 65 1009.7
20260508210634 79 94 5.0 6.0 0.00 0.15 0.15 61 1009.6
20260508210132 78 120 4.0 5.0 0.00 0.15 0.15 63 1010.1
20260508205629 78 199 2.0 9.0 0.00 0.15 0.15 62 1010.4
20260508205125 78 117 3.0 11.0 0.00 0.15 0.15 63 1010.5
20260508204621 77 130 6.0 13.0 0.00 0.15 0.15 63 1010.7
20260508204117 78 187 6.0 13.0 0.00 0.15 0.15 64 1010.8
20260508203613 78 192 9.0 11.0 0.00 0.15 0.15 63 1010.9
20260508203110 78 237 4.0 12.0 0.00 0.15 0.15 63 1011.1
20260508202606 79 225 4.0 9.0 0.00 0.15 0.15 63 1011.2
20260508202104 78 192 2.0 7.0 0.00 0.15 0.15 63 1011.3
20260508201600 78 202 5.0 14.0 0.00 0.15 0.15 63 1011.5
20260508201057 78 177 6.0 12.0 0.00 0.15 0.15 61 1011.1
20260508200554 79 198 7.0 11.0 0.00 0.15 0.15 60 1011.2
20260508200049 79 149 3.0 9.0 0.00 0.15 0.15 60 1011.5
20260508195546 78 195 4.0 7.0 0.00 0.15 0.15 62 1011.6
20260508195042 76 187 5.0 11.0 0.00 0.15 0.15 64 1011.7
20260508194540 76 181 5.0 8.0 0.00 0.15 0.15 62 1011.9
20260508194037 77 177 3.0 11.0 0.00 0.15 0.15 62 1011.8
20260508193533 77 210 3.0 7.0 0.00 0.15 0.15 62 1011.7
20260508193030 78 196 5.0 7.0 0.00 0.15 0.15 61 1011.7
20260508192527 78 196 2.0 9.0 0.00 0.15 0.15 59 1011.9
20260508192024 78 87 4.0 5.0 0.00 0.15 0.15 62 1011.9
20260508191521 77 218 5.0 10.0 0.00 0.15 0.15 60 1011.9
20260508191017 77 194 5.0 7.0 0.00 0.15 0.15 61 1011.9
20260508190515 77 191 4.0 9.0 0.00 0.15 0.15 63 1011.9
20260508190011 77 204 6.0 8.0 0.00 0.15 0.15 61 1012.0